Regional Weather Roundup
Issued by NWS Green Bay, WI

Home | Current Version | Previous Version | Text Only | Print | Product List | Glossary On
Versions: 1 2 3 4 5 6 7 8 9 10 11 12 13 14 15 16 17 18 19 20 21 22 23 24 25 26 27 28 29 30 31 32 33 34 35 36 37 38 39 40 41 42 43 44 45 46 47 48 49 50
294
ASUS43 KGRB 280011
RWRGRB

NORTH-CENTRAL AND NORTHEAST WISCONSIN REGIONAL WEATHER ROUNDUP
NATIONAL WEATHER SERVICE GREEN BAY WI
600 PM CST MON FEB 27 2017

WIZ005-009-010>012-018-019-280100-
NORTH CENTRAL WISCONSIN

CITY           SKY/WX    TMP DP  RH WIND       PRES   REMARKS
IRONWOOD       PTCLDY    38  16  40 S6        29.92R
MANITOWISH WTR MOCLDY    34  15  46 S5        29.93R
ARBOR VITAE    PTCLDY    37  20  51 S6          N/A
EAGLE RIVER    PTCLDY    35  15  44 S3        29.95R
LAND O LAKES   PTCLDY    35  17  48 S5        29.95S
RHINELANDER    CLOUDY    36  17  46 S3        29.96S
PHILLIPS       CLOUDY    35  17  48 SE5       29.93R
ANTIGO         CLEAR     33  22  63 S12       29.99R
TOMAHAWK       CLOUDY    32  19  59 CALM      29.97R
MERRILL        NOT AVBL
$$

WIZ013-073-280100-
NORTHEAST WISCONSIN

CITY           SKY/WX    TMP DP  RH WIND       PRES   REMARKS
IRON MOUNTAIN  PTCLDY    36  19  50 S7        29.98S
MARINETTE      CLEAR     35  25  66 S7        30.06S
OCONTO         CLEAR     35  28  75 S6        30.06S
$$

WIZ017-030-035>037-045-280100-
CENTRAL WISCONSIN

CITY           SKY/WX    TMP DP  RH WIND       PRES   REMARKS
MEDFORD        CLOUDY    33  18  55 SE3       29.95S
WAUSAU         CLEAR     38  19  46 SE6       29.97S
MOSINEE        PTCLDY    37  23  56 SE9       29.99S
MARSHFIELD     CLEAR     35  21  56 S8        29.96S
WISC RAPIDS    CLEAR     40  28  62 S5        30.01R
STEVENS POINT  CLEAR     36  26  66 S5        30.01R
WAUPACA        CLEAR     39  29  67 SE3       30.03S
SHAWANO        CLEAR     39  26  61 SE5       30.03F
CLINTONVILLE   CLEAR     36  28  75 S6        30.03S
WAUTOMA        CLEAR     38  30  73 CALM      30.03R
$$

WIZ038-039-048-051-280100-
FOX VALLEY

CITY           SKY/WX    TMP DP  RH WIND       PRES   REMARKS
NWS GREEN BAY  PTCLDY    36  31  82 SE7       30.05F
APPLETON       PTCLDY    36  27  69 SE7       30.02F
OSHKOSH        CLOUDY    37  30  75 E3        30.03S
FOND DU LAC    CLOUDY    40  29  64 SE6       30.03S
$$

WIZ022-050-052-280100-
EAST CENTRAL WISCONSIN

CITY           SKY/WX    TMP DP  RH WIND       PRES   REMARKS
EPHRAIM        FAIR      34  30  87 S7        30.06S
WASHINGTON ISL FAIR      33  30  87 S10       30.06S
STURGEON BAY   CLOUDY    35  30  82 S10       30.07S
MANITOWOC      PTCLDY    36  33  89 S7        30.07S
SHEBOYGAN      CLEAR     37  32  82 S5        30.05F
$$

LMZ563-521-522-541>543-280100-
LAKESHORE

STATION/POSITION TIME  TEMP    WIND        PRES    VSBY  WAVE
                       AIR SEA DIR/SP/G                  HT/PER
                 (UTC) (F)     (DEG/KT/KT) (MB)    (MI)  (FT/S)
SHEBOYGAN LKSHOR 0000   37     180/  8/  8 1018.4F
KEWAUNEE LKSHORE 2348   36     180/  7/  8 1017.9F
NORTHPORT PIER   2340   35     170/  5/  9 1017.9S
SISTER BAY LKSHO 2335   36     180/ 14/ 17   N/A
CHAMBERS ISLAND  2340   35     150/  5/ 10 1017.6S
MENOMINEE LKSHOR 2348   34     160/  7/ 11 1017.1S
$$




USA.gov is the U.S. government's official web portal to all federal, state and local government web resources and services.